Home > Weather > Damascus > Past weeks

Flag for Syria Past Weather in Damascus, Syria — Yesterday and Last 2 Weeks

Now
97 °F

Sunny.


Feels Like: 95 °F
Forecast: 61 / 99 °F
Wind: 17 mph from Southwest

Location: Damascus Int. Airport

Current Time: Jul 24, 2016 at 3:48:42 PM

Latest Report: Jul 24, 2016 at 3:00 PM


Visibility: 10 mi

Pressure: 29.65 "Hg (27.48 "Hg at 689m altitude)

Humidity: 23%

Dew Point: 54 °F

Location of DamascusLocation

Past Weather in Damascus — Graph

°F

Damascus Temperature Yesterday

Maximum temperature yesterday: 99 °F (at 4:00 PM)
Minimum temperature yesterday: 64 °F (at 5:00 AM)
Average temperature yesterday: 79 °F

High & Low Weather Summary for the Past Weeks

 TemperatureHumidityPressure
High108 °F (Jul 16, 5:00 PM)88% (Jul 17, 5:00 AM)29.95 "Hg (Jul 17, 5:00 AM)
Low63 °F (Jul 22, 6:00 AM)6% (Jul 15, 4:00 PM)29.62 "Hg (Jul 19, 5:00 PM)
Average83 °F43%29.79 "Hg
* Reported Jul 9 2:00 PM — Jul 24 2:00 PM, Damascus, Weather by CustomWeather, © 2016

Note: Actual official high and low records may vary slightly from our data, if they occured in-between our weather recording intervals... More about our weather records

Advertising

Damascus Weather History for the Previous 24 Hours

Scroll right to see more
 ConditionsComfort  
Time TempWeatherWind HumidityBarometerVisibility
2:00 PM
Sun, Jul 24
97 °FSunny.14 mph20%29.65 "Hg10 mi
1:00 PM97 °FSunny.17 mph22%29.68 "Hg10 mi
12:00 PM91 °FSunny.25 mph32%29.68 "Hg10 mi
11:00 AM88 °FSunny.20 mph38%29.71 "Hg10 mi
10:00 AM84 °FSunny.18 mph45%29.74 "Hg10 mi
9:00 AM77 °FSunny.21 mph61%29.74 "Hg10 mi
8:00 AM73 °FSunny.18 mph69%29.74 "Hg10 mi
7:00 AM70 °FSunny.23 mph78%29.74 "Hg10 mi
6:00 AM68 °FClear.20 mph83%29.74 "Hg10 mi
5:00 AM70 °FClear.21 mph78%29.74 "Hg10 mi
4:00 AM70 °FClear.21 mph78%29.74 "Hg10 mi
3:00 AM70 °FClear.18 mph78%29.74 "Hg10 mi
2:00 AM72 °FClear.16 mph73%29.74 "Hg10 mi
1:00 AM72 °FClear.18 mph73%29.77 "Hg10 mi
12:00 AM72 °FClear.21 mph73%29.77 "Hg10 mi
11:00 PM
Sat, Jul 23
73 °FClear.25 mph65%29.77 "Hg10 mi
10:00 PM75 °FClear.25 mph61%29.77 "Hg10 mi
9:00 PM79 °FClear.23 mph51%29.77 "Hg10 mi
8:00 PM82 °FSunny.28 mph42%29.74 "Hg10 mi
7:00 PM90 °FSunny.23 mph26%29.74 "Hg10 mi
6:00 PM93 °FSunny.18 mph20%29.74 "Hg10 mi
5:00 PM97 °FSunny.16 mph16%29.74 "Hg10 mi
4:00 PM99 °FSunny.16 mph12%29.77 "Hg10 mi
3:00 PM97 °FSunny.7 mph11%29.80 "Hg10 mi
Weather by CustomWeather, © 2016

See weather overviewHow to use our weather pages